Hourly Weather Roundup
Issued by NWS Central Illinois

Home | Current Version | Previous Version | Text Only | Print | Product List | Glossary On
Versions: 1 2 3 4 5 6 7 8 9 10 11 12 13 14 15 16 17 18 19 20 21 22 23 24 25 26 27 28 29 30 31 32 33 34 35 36 37 38 39 40 41 42 43 44 45 46 47 48 49 50
000
NZUS43 KILX 051810
HWRILX

AREA WEATHER ROUNDUP
NATIONAL WEATHER SERVICE, LINCOLN IL
100 PM CDT SUN JUL 05 2015


CITY           SKY/WX    TMP DP  RH WIND       PRES   REMARKS
BLOOMINGTON    MOSUNNY   80  65  60 S6        30.10F HX  82
6HR MIN TEMP:  64; 6HR MAX TEMP:  80;

CHAMPAIGN      PTSUNNY   79  63  57 S3        30.09F HX  80
6HR MIN TEMP:  63; 6HR MAX TEMP:  81;

DANVILLE       PTSUNNY   79  67  66 SW6       30.07F HAZE    HX  81
6HR MIN TEMP:  62; 6HR MAX TEMP:  80;

DECATUR        PTSUNNY   81  64  56 S6        30.09S HX  82
6HR MIN TEMP:  62; 6HR MAX TEMP:  81;

EFFINGHAM      MOSUNNY   81  58  44 CALM      30.09F HX  81
FLORA          MOSUNNY   81  65  58 CALM      30.08F HX  83
6HR MIN TEMP:  65; 6HR MAX TEMP:  82;

GALESBURG      MOSUNNY   80  66  62 S10       30.06S HX  82
JACKSONVILLE   CLOUDY    82  67  61 CALM      30.06F HX  84
6HR MIN TEMP:  65; 6HR MAX TEMP:  83;

LACON          SUNNY     80  63  55 S7        30.05F HX  82
6HR MIN TEMP:  62; 6HR MAX TEMP:  80;

LAWRENCEVILLE  MOSUNNY   84  68  58 E8        30.07F HX  87
6HR MIN TEMP:  69; 6HR MAX TEMP:  84;

LITCHFIELD     MOSUNNY   80  64  56 CALM      30.07F HX  82
$$


CITY           SKY/WX    TMP DP  RH WIND       PRES   REMARKS
LINCOLN        MOSUNNY   81  63  54 S6        30.07F HX  82
6HR MIN TEMP:  62; 6HR MAX TEMP:  82;

MACOMB         SUNNY     81  67  63 SE8       30.07F HX  83
MATTOON        MOSUNNY   79  65  62 CALM      30.08F HX  81
6HR MIN TEMP:  63; 6HR MAX TEMP:  81;

MT CARMEL AP   MOSUNNY   84  68  58 SE5       30.07S HX  87
OLNEY-NOBLE AP PTSUNNY   81  66  61 CALM      30.08S HX  83
PARIS          PTSUNNY   81  66  60 SE3       30.10S HX  83
6HR MIN TEMP:  62; 6HR MAX TEMP:  81;

PEORIA         MOSUNNY   82  65  56 S9        30.07F HX  84
6HR MIN TEMP:  67; 6HR MAX TEMP:  82;

PONTIAC        SUNNY     80  65  61 S3        30.10S HX  82
RANTOUL        MOSUNNY   82  64  55 S5        30.09F HX  83
6HR MIN TEMP:  66; 6HR MAX TEMP:  82;

ROBINSON       PTSUNNY   81  68  65 CALM      30.09S HX  83
6HR MIN TEMP:  66; 6HR MAX TEMP:  81;

SPRINGFIELD    SUNNY     83  65  54 VRB3      30.07F HX  85
6HR MIN TEMP:  67; 6HR MAX TEMP:  84;

TAYLORVILLE    MOSUNNY   79  64  61 SW3       30.08S HX  81
$$

...REGIONAL REPORTS...


CITY           SKY/WX    TMP DP  RH WIND       PRES   REMARKS
CHICAGO O`HARE MOSUNNY   80  60  50 S7        30.07F HX  81
KANKAKEE       PTSUNNY   82  64  54 SE7       30.10S HX  84
MOLINE         MOSUNNY   81  66  60 S9G17     30.03F HX  83
MOUNT STERLING NOT AVBL
MOUNT VERNON   MOSUNNY   82  64  54 SW3       30.08F HX  84
PITTSFIELD     MOSUNNY   82  70  65 S7        30.06F HX  86
QUINCY         MOSUNNY   83  70  64 SE7       30.03F HX  87
ROCKFORD       MOSUNNY   81  62  52 S8        30.08F HX  82
$$


CITY           SKY/WX    TMP DP  RH WIND       PRES   REMARKS
BURLINGTON     SUNNY     82  70  66 SE13      30.02F HX  86
CEDAR RAPIDS   MOSUNNY   79  67  66 S10       30.00F HX  81
DES MOINES     CLOUDY    82  69  64 S10       29.95F HX  85
KIRKSVILLE     PTSUNNY   84  68  58 S9        30.02F HX  87
OTTUMWA        PTSUNNY   81  70  69 SW9       29.99S HX  84
ST LOUIS       PTSUNNY   85  66  53 SW5       30.07S HX  87
$$


CITY           SKY/WX    TMP DP  RH WIND       PRES   REMARKS
TERRE HAUTE    MOSUNNY   81  64  56 CALM      30.08F HX  82
EVANSVILLE     PTSUNNY   82  70  66 E9        30.07S HX  86
INDIANAPOLIS   PTSUNNY   79  60  52 E9        30.08F HX  80
LAFAYETTE      SUNNY     80  60  50 SW5       30.09S HX  81
MADISON        MOSUNNY   81  62  52 S14       30.04F HX  82
MILWAUKEE      MOSUNNY   81  59  47 SW8       30.07S HX  81
$$





USA.gov is the U.S. government's official web portal to all federal, state and local government web resources and services.